{"data":{"norad_id":64459,"epoch":"2026-05-25T02:32:34.010016Z","epoch_age_seconds":65246,"freshness":"FRESH","line1":"1 64459U 25130X   26145.10594919  .00035358  00000+0  10523-2 0  9991","line2":"2 64459  53.1601  92.8180 0001228 100.4966 259.6175 15.34412770 52414","mean_motion":15.3441277,"eccentricity":0.0001228,"inclination_deg":53.1601,"raan_deg":92.818,"arg_perigee_deg":100.4966,"mean_anomaly_deg":259.6175,"bstar":0.0010523,"rev_number":5241,"period_min":93.846977042559,"perigee_km":461.82523481854,"apogee_km":463.50533585982,"semimajor_km":6840.8022853392,"source":"CELESTRAK","updated_at":"2026-05-25T13:38:20.453124Z"}}